1512374400.19,49646,4.13,72682.5,-11.61,-12.79,-12.89,0,*61
1512374401.47,49647,4.13,72664.3,-11.59,-12.83,-12.83,0,*64
1512374402.71,49648,4.13,72660.0,-11.61,-12.93,-13.01,0,*6A
1512374403.93,49649,4.13,72662.0,-11.61,-12.89,-12.93,0,*6A
1512374405.17,49650,4.13,72668.5,-11.61,-12.79,-12.89,0,*66
1512374406.38,49651,4.13,72680.0,-11.61,-12.93,-12.93,0,*68
1512374407.6,49652,4.13,72670.5,-11.65,-13.11,-13.11,0,*6F
1512374408.82,49653,4.13,72668.5,-11.65,-13.07,-13.19,0,*61
1512374410.06,49654,4.13,72662.8,-11.65,-12.83,-12.93,0,*68
1512374411.33,49655,4.13,72658.3,-11.65,-12.71,-12.71,0,*68
1512374412.6,49656,4.13,72658.8,-11.65,-12.57,-12.57,0,*6B
1512374413.87,49657,4.13,72658.8,-11.65,-12.65,-12.71,0,*6F
1512374415.14,49658,4.13,72664.3,-11.65,-12.57,-12.57,0,*65
1512374416.4,49659,4.13,72662.0,-11.65,-12.65,-12.57,0,*65
1512374417.67,49660,4.13,72658.8,-11.65,-12.53,-12.57,0,*6A
1512374418.89,49661,4.13,72658.3,-11.65,-12.39,-12.47,0,*66
1512374420.1,49662,4.13,72672.8,-11.65,-12.39,-12.39,0,*6C
1512374421.37,49663,4.13,72670.0,-11.67,-12.35,-12.39,0,*63
1512374422.61,49664,4.13,72662.0,-11.65,-12.39,-12.35,0,*66
1512374423.86,49665,4.13,72664.8,-11.65,-12.35,-12.47,0,*6E
1512374425.1,49666,4.13,72662.8,-11.65,-12.35,-12.39,0,*64
1512374426.34,49667,4.13,72666.0,-11.65,-12.39,-12.35,0,*65
1512374427.56,49668,4.13,72668.5,-11.61,-12.29,-12.29,0,*62
1512374428.78,49669,4.13,72668.3,-11.61,-12.29,-12.29,0,*63
1512374430.01,49670,4.13,72670.8,-11.61,-12.21,-12.29,0,*63
1512374431.22,49671,4.13,72680.8,-11.61,-12.29,-12.29,0,*6A
1512374432.52,49672,4.13,72686.0,-11.59,-12.15,-12.35,0,*60
1512374433.77,49673,4.13,72678.5,-11.59,-12.25,-12.29,0,*6F
1512374434.98,49674,4.13,72672.5,-11.61,-12.47,-12.47,0,*6F
1512374436.25,49675,4.13,72672.5,-11.61,-12.53,-12.53,0,*6E
1512374437.52,49676,4.13,72672.5,-11.61,-12.53,-12.53,0,*6D
1512374438.79,49677,4.13,72672.8,-11.61,-12.75,-12.75,0,*6C
1512374440.0,49678,4.13,72676.3,-11.61,-12.89,-12.93,0,*68
1512374441.24,49679,4.13,72680.5,-11.61,-13.07,-13.01,0,*64
1512374442.46,49680,4.13,72674.5,-11.65,-12.93,-12.97,0,*64
1512374443.72,49681,4.13,72674.0,-11.65,-12.79,-12.83,0,*64
1512374444.94,49682,4.13,72678.0,-11.65,-12.93,-12.93,0,*62
1512374446.16,49683,4.13,72664.3,-11.65,-13.07,-13.07,0,*63
1512374447.4,49684,4.13,72662.0,-11.67,-13.07,-13.19,0,*69
1512374448.64,49685,4.13,72674.0,-11.67,-13.11,-13.11,0,*67
1512374449.88,49686,4.13,72670.8,-11.67,-13.11,-13.11,0,*64
1512374451.12,49687,4.13,72668.0,-11.67,-13.07,-13.11,0,*62
1512374452.37,49688,4.13,72664.0,-11.67,-12.97,-13.19,0,*6D
1512374453.61,49689,4.13,72664.0,-11.67,-12.93,-12.97,0,*6F
1512374454.85,49690,4.13,72664.8,-11.67,-12.97,-13.07,0,*6B
1512374456.09,49691,4.13,72668.3,-11.67,-13.11,-13.11,0,*62
1512374457.33,49692,4.13,72664.5,-11.67,-12.97,-12.97,0,*61
1512374458.57,49693,4.13,72666.3,-11.69,-12.83,-12.89,0,*64
1512374459.85,49694,4.13,72666.8,-11.69,-12.75,-12.75,0,*69
1512374461.11,49695,4.13,72664.5,-11.69,-12.61,-12.61,0,*68
1512374462.38,49696,4.13,72664.0,-11.69,-12.53,-12.57,0,*6F
1512374463.62,49697,4.13,72670.5,-11.71,-12.39,-12.43,0,*6E
1512374464.88,49698,4.13,72668.3,-11.71,-12.29,-12.39,0,*6D
1512374466.1,49699,4.13,72674.0,-11.69,-12.25,-12.29,0,*68
1512374467.32,49700,4.13,72672.8,-11.69,-12.25,-12.29,0,*69
1512374468.57,49701,4.13,72670.8,-11.67,-12.25,-12.25,0,*6A
1512374469.84,49702,4.13,72678.0,-11.67,-12.21,-12.35,0,*6C
1512374471.08,49703,4.13,72680.0,-11.67,-12.39,-12.39,0,*68
1512374472.35,49704,4.13,72686.8,-11.67,-12.39,-12.35,0,*63
1512374473.62,49705,4.13,72684.8,-11.67,-12.39,-12.53,0,*62
1512374474.91,49706,4.13,72684.5,-11.67,-12.53,-12.53,0,*6D
1512374476.21,49707,4.13,72682.8,-11.67,-12.53,-12.57,0,*68
1512374477.5,49708,4.13,72682.0,-11.67,-12.53,-12.53,0,*63
1512374478.8,49709,4.13,72676.0,-11.67,-12.53,-12.53,0,*62
1512374480.1,49710,4.13,72680.8,-11.67,-12.53,-12.71,0,*6A
1512374481.4,49711,4.13,72684.0,-11.67,-12.79,-12.71,0,*63
1512374482.69,49712,4.13,72678.3,-11.67,-12.71,-12.79,0,*60
1512374483.98,49713,4.13,72682.3,-11.67,-12.79,-12.83,0,*6C
1512374485.25,49714,4.13,72676.0,-11.69,-12.75,-12.83,0,*69
1512374486.49,49715,4.13,72678.0,-11.69,-12.83,-12.89,0,*6B
1512374487.73,49716,4.13,72678.0,-11.69,-12.83,-12.97,0,*67
1512374488.97,49717,4.13,72676.3,-11.69,-12.83,-12.97,0,*66
1512374490.19,49718,4.13,72676.3,-11.69,-12.97,-12.97,0,*6C
1512374491.41,49719,4.13,72672.3,-11.69,-12.89,-12.89,0,*6D
1512374492.63,49720,4.13,72674.3,-11.69,-12.89,-12.97,0,*68
1512374493.85,49721,4.13,72676.5,-11.69,-12.97,-12.89,0,*69
1512374495.07,49722,4.13,72674.3,-11.69,-12.97,-12.97,0,*65
1512374496.32,49723,4.13,72678.0,-11.71,-12.97,-12.97,0,*6D
1512374497.57,49724,4.13,72670.5,-11.71,-12.97,-12.97,0,*6A
1512374498.84,49725,4.13,72670.5,-11.71,-12.83,-12.89,0,*61
1512374500.14,49726,4.13,72660.3,-11.71,-12.75,-12.83,0,*61
1512374501.44,49727,4.13,72662.8,-11.71,-12.75,-12.83,0,*60
1512374502.68,49728,4.13,72660.5,-11.69,-12.83,-12.89,0,*65
1512374503.93,49729,4.13,72644.5,-11.71,-12.97,-12.97,0,*67
1512374505.17,49730,4.13,72642.3,-11.71,-13.11,-13.23,0,*6E
1512374506.41,49731,4.13,72648.3,-11.71,-13.15,-13.15,0,*6E
1512374507.65,49732,4.13,72652.0,-11.73,-12.93,-13.07,0,*63
1512374508.91,49733,4.13,72668.3,-11.73,-13.01,-13.15,0,*6B
1512374510.16,49734,4.13,72652.0,-11.71,-13.23,-13.23,0,*6B
1512374511.45,49735,4.13,72646.5,-11.73,-13.29,-13.29,0,*68
1512374512.67,49736,4.13,72638.3,-11.75,-13.19,-13.19,0,*6D
1512374513.88,49737,4.13,72634.3,-11.75,-13.07,-13.15,0,*6F
1512374515.09,49738,4.13,72630.8,-11.75,-13.07,-13.15,0,*60
1512374516.35,49739,4.13,72632.8,-11.73,-13.07,-13.29,0,*68
1512374517.59,49740,4.13,72638.3,-11.75,-13.15,-13.29,0,*63
1512374518.81,49741,4.13,72632.5,-11.75,-13.15,-13.19,0,*61
1512374520.04,49742,4.13,72636.8,-11.75,-13.01,-13.15,0,*6B
1512374521.25,49743,4.13,72636.5,-11.75,-13.07,-13.07,0,*6F
1512374522.49,49744,4.13,72642.0,-11.73,-12.93,-13.07,0,*62
1512374523.72,49745,4.13,72640.3,-11.75,-13.07,-13.01,0,*6F
1512374524.97,49746,4.13,72648.5,-11.75,-13.01,-12.93,0,*60
1512374526.18,49747,4.13,72648.3,-11.79,-13.07,-13.07,0,*67
1512374527.4,49748,4.13,72642.3,-11.79,-13.07,-13.07,0,*68
1512374528.61,49749,4.13,72638.3,-11.79,-12.97,-13.07,0,*61
1512374529.83,49750,4.13,72630.0,-11.79,-13.07,-13.07,0,*61
1512374531.09,49751,4.13,72626.8,-11.79,-12.83,-12.83,0,*60
1512374532.36,49752,4.13,72638.5,-11.81,-12.79,-12.93,0,*60
1512374533.66,49753,4.13,72636.3,-11.81,-12.71,-12.79,0,*6D
1512374534.94,49754,4.13,72650.8,-11.79,-12.71,-12.71,0,*65
1512374536.15,49755,4.13,72640.8,-11.79,-13.07,-13.07,0,*64
1512374537.4,49756,4.13,72640.3,-11.81,-12.97,-12.97,0,*60
1512374538.7,49757,4.13,72640.0,-11.81,-12.71,-12.83,0,*6C
1512374539.97,49758,4.13,72652.0,-11.79,-12.65,-12.71,0,*6C
1512374541.24,49759,4.13,72648.0,-11.79,-12.61,-12.53,0,*69
1512374542.51,49760,4.13,72650.8,-11.79,-12.61,-12.53,0,*63
1512374543.77,49761,4.13,72656.0,-11.79,-12.65,-12.61,0,*67
1512374545.07,49762,4.13,72660.3,-11.81,-12.53,-12.61,0,*66
1512374546.36,49763,4.13,72662.8,-11.81,-12.65,-12.65,0,*66
1512374547.62,49764,4.13,72660.5,-11.79,-12.61,-12.65,0,*62
1512374548.88,49765,4.13,72668.3,-11.79,-12.65,-12.65,0,*67
1512374550.15,49766,4.13,72672.0,-11.79,-12.65,-12.65,0,*64
1512374551.41,49767,4.13,72668.0,-11.79,-12.65,-12.65,0,*65
1512374552.68,49768,4.13,72664.5,-11.79,-12.65,-12.65,0,*6A
1512374553.94,49769,4.13,72662.3,-11.79,-12.65,-12.61,0,*6F
1512374555.21,49770,4.13,72668.5,-11.79,-12.53,-12.61,0,*62
1512374556.49,49771,4.13,72674.3,-11.81,-12.47,-12.53,0,*60
1512374557.73,49772,4.13,72676.8,-11.81,-12.47,-12.39,0,*6F
1512374558.97,49773,4.13,72674.0,-11.73,-12.43,-12.47,0,*6E
1512374560.21,49774,4.13,72674.5,-11.75,-12.47,-12.57,0,*6A
1512374561.42,49775,4.13,72678.3,-11.75,-12.47,-12.47,0,*6A
1512374562.69,49776,4.13,72672.8,-11.75,-12.61,-12.61,0,*69
1512374563.95,49777,4.13,72674.0,-11.75,-12.61,-12.61,0,*68
1512374565.23,49778,4.13,72676.8,-11.73,-12.61,-12.61,0,*61
1512374566.5,49779,4.13,72676.8,-11.75,-12.57,-12.61,0,*63
1512374567.76,49780,4.13,72678.0,-11.75,-12.57,-12.57,0,*60
1512374569.02,49781,4.13,72688.0,-11.75,-12.61,-12.61,0,*61
1512374570.31,49782,4.13,72686.8,-11.73,-12.61,-12.75,0,*61
1512374571.58,49783,4.13,72674.0,-11.75,-12.75,-12.65,0,*62
1512374572.83,49784,4.13,72678.8,-11.75,-12.65,-12.65,0,*64
1512374574.12,49785,4.13,72666.0,-11.73,-12.65,-12.65,0,*63
1512374575.39,49786,4.13,72668.3,-11.75,-12.75,-12.75,0,*66
1512374576.61,49787,4.13,72668.5,-11.75,-12.89,-12.93,0,*6C
1512374577.82,49788,4.13,72670.3,-11.75,-12.89,-12.93,0,*63
1512374579.06,49789,4.13,72666.8,-11.75,-12.93,-13.01,0,*63
1512374580.28,49790,4.13,72670.8,-11.79,-13.07,-13.11,0,*6A
1512374581.5,49791,4.13,72668.3,-11.79,-12.93,-12.93,0,*6C
1512374582.74,49792,4.13,72666.0,-11.79,-12.83,-13.07,0,*62
1512374583.95,49793,4.13,72660.3,-11.79,-12.97,-13.07,0,*66
1512374585.17,49794,4.13,72660.8,-11.79,-12.97,-13.07,0,*61
1512374586.41,49795,4.13,72662.3,-11.79,-12.83,-12.93,0,*69
1512374587.69,49796,4.13,72668.3,-11.79,-12.71,-12.71,0,*6B
1512374588.98,49797,4.13,72668.8,-11.81,-12.61,-12.61,0,*6D
1512374590.25,49798,4.13,72668.5,-11.79,-12.53,-12.53,0,*65
1512374591.5,49799,4.13,72662.3,-11.79,-12.35,-12.47,0,*61
1512374592.74,49800,4.13,72666.5,-11.79,-12.35,-12.47,0,*6E
1512374594.02,49801,4.13,72670.5,-11.81,-12.35,-12.39,0,*61
1512374595.24,49802,4.13,72668.5,-11.79,-12.25,-12.39,0,*64
1512374596.49,49803,4.13,72674.0,-11.75,-12.21,-12.35,0,*61
1512374597.73,49804,4.13,72680.8,-11.75,-12.15,-12.21,0,*64
1512374598.96,49805,4.13,72680.5,-11.75,-12.21,-12.21,0,*62
1512374600.2,49806,4.13,72682.3,-11.75,-12.43,-12.57,0,*64
1512374601.45,49807,4.13,72668.8,-11.75,-12.61,-12.65,0,*64
1512374602.72,49808,4.13,72666.8,-11.75,-12.65,-12.75,0,*6E
1512374603.96,49809,4.13,72662.3,-11.75,-12.79,-12.89,0,*61
1512374605.18,49810,4.13,72664.8,-11.75,-13.07,-13.19,0,*69
1512374606.4,49811,4.13,72662.3,-11.75,-13.15,-13.19,0,*6B
1512374607.62,49812,4.13,72662.5,-11.75,-13.15,-13.19,0,*68
1512374608.87,49813,4.13,72660.0,-11.75,-13.29,-13.19,0,*66
1512374610.16,49814,4.13,72656.5,-11.81,-13.33,-13.33,0,*69
1512374611.41,49815,4.13,72656.0,-11.79,-13.23,-13.33,0,*6E
1512374612.68,49816,4.13,72660.5,-11.81,-13.33,-13.23,0,*6A
1512374613.91,49817,4.13,72656.0,-11.81,-13.47,-13.47,0,*6A
1512374615.14,49818,4.13,72658.8,-11.81,-13.47,-13.47,0,*65
1512374616.44,49819,4.13,72662.8,-11.81,-13.37,-13.37,0,*64
1512374617.7,49820,4.13,72660.3,-11.85,-13.23,-13.29,0,*60
1512374618.92,49821,4.13,72660.3,-11.83,-13.15,-13.23,0,*68
1512374620.13,49822,4.13,72654.8,-11.83,-13.15,-13.15,0,*6E
1512374621.38,49823,4.13,72660.3,-11.85,-12.97,-12.97,0,*69
1512374622.62,49824,4.13,72660.5,-11.85,-12.97,-12.97,0,*6E
1512374623.86,49825,4.13,72658.8,-11.85,-12.89,-12.97,0,*60
1512374625.16,49826,4.13,72662.5,-11.85,-12.75,-12.75,0,*6C
1512374626.43,49827,4.13,72666.8,-11.83,-12.65,-12.65,0,*6B
1512374627.69,49828,4.13,72672.0,-11.83,-12.57,-12.57,0,*64
1512374628.94,49829,4.13,72670.5,-11.83,-12.43,-12.53,0,*64
1512374630.18,49830,4.13,72672.5,-11.83,-12.43,-12.57,0,*68
1512374631.45,49831,4.13,72678.8,-11.83,-12.65,-12.71,0,*69
1512374632.73,49832,4.13,72676.5,-11.83,-12.71,-12.71,0,*6F
1512374634.03,49833,4.13,72680.3,-11.85,-12.71,-12.71,0,*68
1512374635.3,49834,4.13,72680.8,-11.83,-12.75,-12.83,0,*60
1512374636.55,49835,4.13,72670.0,-11.83,-12.75,-12.89,0,*6B
1512374637.84,49836,4.13,72674.0,-11.81,-12.71,-12.83,0,*64
1512374639.14,49837,4.13,72678.0,-11.81,-12.79,-12.83,0,*6D
1512374640.43,49838,4.13,72678.8,-11.81,-12.79,-12.83,0,*62
1512374641.65,49839,4.13,72668.8,-11.83,-12.89,-12.97,0,*6B
1512374642.89,49840,4.13,72674.8,-11.83,-12.83,-12.89,0,*60
1512374644.16,49841,4.13,72670.0,-11.83,-12.83,-12.83,0,*6B
1512374645.4,49842,4.13,72668.3,-11.83,-12.83,-12.89,0,*62
1512374646.67,49843,4.13,72672.0,-11.83,-12.75,-12.75,0,*69
1512374647.95,49844,4.13,72680.3,-11.83,-12.75,-12.75,0,*6E
1512374649.25,49845,4.13,72676.0,-11.85,-12.71,-12.71,0,*69
1512374650.51,49846,4.13,72680.3,-11.83,-12.71,-12.65,0,*69
1512374651.8,49847,4.13,72680.8,-11.85,-12.65,-12.65,0,*6B
1512374653.07,49848,4.13,72680.3,-11.83,-12.53,-12.65,0,*67
1512374654.33,49849,4.13,72676.3,-11.83,-12.65,-12.65,0,*63
1512374655.61,49850,4.13,72676.0,-11.83,-12.57,-12.53,0,*6F
1512374656.87,49851,4.13,72674.3,-11.83,-12.57,-12.57,0,*6A
1512374658.15,49852,4.13,72676.5,-11.83,-12.53,-12.53,0,*69
1512374659.42,49853,4.13,72678.8,-11.83,-12.57,-12.53,0,*6C
1512374660.66,49854,4.13,72682.3,-11.81,-12.39,-12.47,0,*64
1512374661.93,49855,4.13,72686.0,-11.83,-12.53,-12.57,0,*6A
1512374663.2,49856,4.13,72684.0,-11.79,-12.61,-12.65,0,*6C
1512374664.49,49857,4.13,72688.3,-11.81,-12.65,-12.65,0,*6E
1512374665.78,49858,4.13,72684.0,-11.81,-12.65,-12.65,0,*61
1512374667.07,49859,4.13,72682.8,-11.81,-12.71,-12.79,0,*68
1512374668.37,49860,4.13,72676.5,-11.81,-12.79,-12.79,0,*6A
1512374669.64,49861,4.13,72672.0,-11.79,-12.79,-12.79,0,*6C
1512374670.94,49862,4.13,72672.0,-11.81,-12.71,-12.79,0,*60
1512374672.21,49863,4.13,72668.3,-11.81,-12.79,-12.93,0,*6D
1512374673.48,49864,4.13,72674.5,-11.81,-12.83,-12.93,0,*6F
1512374674.73,49865,4.13,72676.0,-11.81,-12.93,-12.97,0,*6B
1512374676.0,49866,4.13,72678.0,-11.81,-12.83,-12.97,0,*69
1512374677.24,49867,4.13,72672.3,-11.81,-12.97,-13.11,0,*62
1512374678.46,49868,4.13,72670.3,-11.83,-13.11,-13.15,0,*64
1512374679.7,49869,4.13,72658.0,-11.83,-12.97,-13.01,0,*6F
1512374680.97,49870,4.13,72656.5,-11.83,-12.75,-12.75,0,*69
1512374682.24,49871,4.13,72662.5,-11.83,-12.75,-12.83,0,*61
1512374683.54,49872,4.13,72656.5,-11.85,-12.71,-12.75,0,*69
1512374684.83,49873,4.13,72674.0,-11.85,-12.65,-12.65,0,*6C
1512374686.07,49874,4.13,72674.0,-11.83,-12.75,-12.89,0,*6E
1512374687.29,49875,4.13,72672.0,-11.83,-12.89,-12.97,0,*63
1512374688.51,49876,4.13,72672.0,-11.83,-12.89,-12.89,0,*6F
1512374689.73,49877,4.13,72670.3,-11.83,-12.89,-12.97,0,*61
1512374691.0,49878,4.13,72672.0,-11.85,-12.83,-12.89,0,*6D
1512374692.27,49879,4.13,72670.8,-11.83,-12.75,-12.75,0,*60
1512374693.57,49880,4.13,72668.0,-11.85,-12.83,-12.75,0,*69
1512374694.86,49881,4.13,72662.3,-11.85,-12.83,-12.83,0,*61
1512374696.08,49882,4.13,72658.5,-11.83,-12.97,-12.97,0,*64
1512374697.32,49883,4.13,72650.5,-11.83,-13.01,-13.11,0,*64
1512374698.59,49884,4.13,72648.8,-11.85,-13.01,-13.15,0,*61
1512374699.83,49885,4.13,72648.5,-11.85,-13.11,-13.11,0,*65
1512374701.06,49886,4.13,72650.5,-11.85,-13.15,-13.15,0,*66
1512374702.3,49887,4.13,72650.8,-11.85,-13.11,-13.11,0,*67
1512374703.54,49888,4.13,72652.5,-11.85,-13.11,-13.15,0,*6C
1512374704.81,49889,4.13,72656.3,-11.83,-13.01,-13.01,0,*6F
1512374706.03,49890,4.13,72664.0,-11.83,-12.97,-12.97,0,*67
1512374707.27,49891,4.13,72668.0,-11.87,-12.93,-13.01,0,*68
1512374708.5,49892,4.13,72662.8,-11.87,-12.89,-12.89,0,*61
1512374709.74,49893,4.13,72656.8,-11.87,-12.79,-12.89,0,*6F
1512374711.02,49894,4.13,72658.0,-11.87,-12.71,-12.75,0,*63
1512374712.3,49895,4.13,72660.0,-11.87,-12.71,-12.71,0,*66
1512374713.57,49896,4.13,72668.5,-11.87,-12.57,-12.57,0,*65
1512374714.81,49897,4.13,72674.5,-11.85,-12.43,-12.43,0,*66
1512374716.05,49898,4.13,72676.3,-11.85,-12.39,-12.39,0,*69
1512374717.29,49899,4.13,72680.5,-11.85,-12.43,-12.43,0,*68
1512374718.59,49900,4.13,72674.3,-11.85,-12.53,-12.53,0,*69
1512374719.85,49901,4.13,72686.0,-11.83,-12.57,-12.65,0,*6F
1512374721.15,49902,4.13,72676.8,-11.85,-12.53,-12.53,0,*6B
1512374722.39,49903,4.13,72672.5,-11.85,-12.39,-12.39,0,*6A
1512374723.61,49904,4.13,72666.5,-11.83,-12.39,-12.39,0,*6B
1512374724.83,49905,4.13,72668.5,-11.83,-12.25,-12.25,0,*6A
1512374726.08,49906,4.13,72680.3,-11.83,-12.15,-12.25,0,*6A
1512374727.32,49907,4.13,72684.3,-11.85,-12.25,-12.25,0,*6E
1512374728.58,49908,4.13,72690.5,-11.81,-12.21,-12.21,0,*65
1512374729.85,49909,4.13,72682.3,-11.79,-12.11,-12.11,0,*63
1512374731.12,49910,4.13,72678.5,-11.81,-12.11,-12.25,0,*6B
1512374732.37,49911,4.13,72680.8,-11.81,-12.21,-12.21,0,*6D
1512374733.62,49912,4.13,72688.3,-11.81,-12.21,-12.25,0,*6A
1512374734.88,49913,4.13,72686.0,-11.81,-12.21,-12.21,0,*6F
1512374736.13,49914,4.13,72688.8,-11.79,-12.07,-12.21,0,*6B
1512374737.4,49915,4.13,72692.0,-11.81,-12.11,-12.21,0,*6A
1512374738.65,49916,4.13,72694.8,-11.79,-12.11,-12.25,0,*6A
1512374739.89,49917,4.13,72684.0,-11.79,-12.35,-12.39,0,*60
1512374741.16,49918,4.13,72682.8,-11.79,-12.53,-12.61,0,*62
1512374742.42,49919,4.13,72690.3,-11.79,-12.61,-12.65,0,*66
1512374743.69,49920,4.13,72686.5,-11.79,-12.53,-12.65,0,*6D
1512374744.94,49921,4.13,72686.0,-11.79,-12.47,-12.61,0,*6D
1512374746.18,49922,4.13,72690.3,-11.79,-12.47,-12.61,0,*6E
1512374747.48,49923,4.13,72686.0,-11.81,-12.53,-12.53,0,*6C
1512374748.72,49924,4.13,72688.8,-11.81,-12.39,-12.47,0,*62
1512374749.97,49925,4.13,72688.0,-11.79,-12.35,-12.39,0,*61
1512374751.19,49926,4.13,72688.8,-11.75,-12.29,-12.29,0,*62
1512374752.43,49927,4.13,72688.8,-11.75,-12.35,-12.47,0,*66
1512374753.7,49928,4.13,72682.8,-11.75,-12.57,-12.61,0,*69
1512374754.96,49929,4.13,72674.0,-11.79,-12.65,-12.65,0,*61
1512374756.23,49930,4.13,72682.0,-11.79,-12.65,-12.71,0,*6C
1512374757.5,49931,4.13,72660.8,-11.79,-12.61,-12.61,0,*68
1512374758.76,49932,4.13,72674.0,-11.79,-12.61,-12.61,0,*6B
1512374759.98,49933,4.13,72664.8,-11.79,-12.47,-12.47,0,*6A
1512374761.25,49934,4.13,72664.0,-11.79,-12.53,-12.65,0,*68
1512374762.51,49935,4.13,72664.5,-11.79,-12.65,-12.65,0,*6C
1512374763.81,49936,4.13,72668.5,-11.81,-12.71,-12.79,0,*60
1512374765.09,49937,4.13,72662.8,-11.79,-12.71,-12.71,0,*6E
1512374766.33,49938,4.13,72662.8,-11.79,-12.47,-12.61,0,*65
1512374767.58,49939,4.13,72670.5,-11.79,-12.53,-12.47,0,*65
1512374768.82,49940,4.13,72668.0,-11.79,-12.35,-12.39,0,*62
1512374770.07,49941,4.13,72668.0,-11.79,-12.11,-12.21,0,*6C
1512374771.3,49942,4.13,72662.0,-11.79,-12.25,-12.21,0,*68
1512374772.56,49943,4.13,72664.5,-11.75,-12.15,-12.15,0,*61
1512374773.83,49944,4.13,72670.3,-11.75,-12.15,-12.07,0,*65
1512374775.07,49945,4.13,72670.3,-11.75,-12.03,-12.07,0,*63
1512374776.33,49946,4.13,72664.5,-11.73,-12.03,-12.07,0,*66
1512374777.59,49947,4.13,72658.8,-11.73,-12.03,-12.07,0,*67
1512374778.83,49948,4.13,72672.3,-11.73,-12.03,-12.03,0,*6C
1512374780.1,49949,4.13,72666.5,-11.73,-12.15,-12.21,0,*6A
1512374781.39,49950,4.13,72652.3,-11.73,-12.57,-12.61,0,*60
1512374782.67,49951,4.13,72654.5,-11.73,-12.61,-12.61,0,*64
1512374783.89,49952,4.13,72654.0,-11.75,-12.43,-12.47,0,*65
1512374785.13,49953,4.13,72656.3,-11.73,-12.29,-12.29,0,*66
1512374786.39,49954,4.13,72666.8,-11.73,-11.59,-11.23,0,*6C
1512374787.69,49955,4.13,72672.3,-11.73,-12.07,-12.07,0,*60
1512374788.93,49956,4.13,72672.5,-11.73,-12.21,-12.21,0,*63
1512374790.23,49957,4.13,72674.0,-11.71,-12.11,-12.15,0,*64
1512374791.53,49958,4.13,72674.3,-11.71,-12.15,-12.11,0,*6B
1512374792.8,49959,4.13,72674.0,-11.69,-12.11,-12.11,0,*67
1512374794.04,49960,4.13,72670.8,-11.69,-12.11,-12.03,0,*6E
1512374795.26,49961,4.13,72670.8,-11.69,-12.03,-12.03,0,*6C
1512374796.53,49962,4.13,72670.8,-11.71,-12.03,-12.11,0,*65
1512374797.8,49963,4.13,72670.3,-11.71,-12.03,-12.11,0,*64
1512374799.07,49964,4.13,72666.5,-11.71,-12.03,-12.15,0,*67
1512374800.37,49965,4.13,72666.8,-11.71,-11.97,-12.11,0,*6C
1512374801.61,49966,4.13,72672.0,-11.69,-12.03,-12.15,0,*6C
1512374802.85,49967,4.13,72672.5,-11.69,-11.97,-12.03,0,*64
1512374804.12,49968,4.13,72668.0,-11.69,-11.89,-11.97,0,*6A
1512374805.41,49969,4.13,72670.0,-11.71,-11.85,-11.89,0,*61
1512374806.7,49970,4.13,72674.3,-11.67,-11.85,-11.85,0,*62
1512374807.97,49971,4.13,72692.5,-11.65,-11.81,-11.85,0,*65
1512374809.24,49972,4.13,72668.5,-11.65,-11.97,-11.93,0,*66
1512374810.53,49973,4.13,72664.8,-11.67,-11.97,-12.07,0,*6B
1512374811.82,49974,4.13,72666.3,-11.67,-12.07,-12.11,0,*61
1512374813.11,49975,4.13,72676.8,-11.67,-11.97,-11.97,0,*67
1512374814.41,49976,4.13,72690.0,-11.67,-11.93,-11.93,0,*64
1512374815.7,49977,4.13,72682.5,-11.67,-12.07,-12.07,0,*65
1512374817.0,49978,4.13,72684.3,-11.67,-12.07,-12.07,0,*6A
1512374818.27,49979,4.13,72696.3,-11.65,-12.07,-12.07,0,*69
1512374819.51,49980,4.13,72690.3,-11.65,-12.11,-12.21,0,*6C
1512374820.81,49981,4.13,72672.8,-11.67,-12.35,-12.35,0,*6C
1512374822.06,49982,4.13,72672.8,-11.65,-12.25,-12.35,0,*6C
1512374823.28,49983,4.13,72676.3,-11.65,-12.25,-12.25,0,*6C
1512374824.57,49984,4.13,72678.5,-11.67,-11.97,-12.07,0,*63
1512374825.84,49985,4.13,72684.0,-11.61,-11.67,-11.67,0,*6E
1512374827.13,49986,4.13,72682.8,-11.67,-11.97,-11.97,0,*6B
1512374828.4,49987,4.13,72682.3,-11.65,-11.93,-11.97,0,*6C
1512374829.69,49988,4.13,72694.3,-11.67,-11.97,-11.97,0,*65
1512374830.98,49989,4.13,72694.5,-11.67,-11.97,-11.93,0,*60
1512374832.26,49990,4.13,72692.5,-11.65,-11.93,-11.97,0,*6A
1512374833.52,49991,4.13,72686.5,-11.65,-12.11,-12.11,0,*6F
1512374834.77,49992,4.13,72684.0,-11.61,-12.15,-12.29,0,*67
1512374836.01,49993,4.13,72684.5,-11.59,-12.25,-12.39,0,*6F
1512374837.25,49994,4.13,72690.3,-11.61,-12.35,-12.47,0,*6B
1512374838.46,49995,4.13,72686.0,-11.61,-12.43,-12.47,0,*6B
1512374839.68,49996,4.13,72684.8,-11.61,-12.43,-12.47,0,*68
1512374840.89,49997,4.13,72682.8,-11.61,-12.47,-12.47,0,*6D
1512374842.16,49998,4.13,72678.5,-11.61,-12.65,-12.75,0,*63
1512374843.45,49999,4.13,72676.5,-11.67,-12.71,-12.71,0,*65
1512374844.72,50000,4.13,72678.3,-11.65,-12.57,-12.57,0,*66
1512374846.0,50001,4.13,72678.5,-11.67,-12.65,-12.65,0,*65
1512374847.25,50002,4.13,72672.3,-11.65,-12.71,-12.93,0,*68
1512374848.54,50003,4.13,72674.3,-11.67,-12.83,-12.83,0,*67
1512374849.8,50004,4.13,72664.0,-11.65,-12.79,-12.83,0,*67
1512374851.1,50005,4.13,72662.0,-11.67,-12.71,-12.79,0,*69
1512374852.39,50006,4.13,72656.5,-11.67,-12.71,-12.79,0,*6A
1512374853.68,50007,4.13,72658.5,-11.67,-12.57,-12.65,0,*62
1512374854.95,50008,4.13,72656.5,-11.67,-12.53,-12.47,0,*69
1512374856.17,50009,4.13,72656.0,-11.69,-12.29,-12.39,0,*62
1512374857.39,50010,4.13,72672.0,-11.69,-12.25,-12.29,0,*67
1512374858.64,50011,4.13,72670.5,-11.67,-12.21,-12.25,0,*60
1512374859.88,50012,4.13,72664.3,-11.67,-12.39,-12.47,0,*6E
1512374861.12,50013,4.13,72660.5,-11.67,-12.39,-12.47,0,*6F
1512374862.41,50014,4.13,72664.3,-11.67,-12.53,-12.57,0,*65
1512374863.7,50015,4.13,72664.3,-11.67,-12.71,-12.79,0,*68
1512374864.95,50016,4.13,72666.0,-11.67,-12.93,-12.93,0,*63
1512374866.19,50017,4.13,72660.0,-11.67,-12.93,-12.97,0,*66
1512374867.43,50018,4.13,72662.8,-11.67,-12.97,-13.07,0,*65
1512374868.65,50019,4.13,72662.0,-11.69,-13.11,-13.11,0,*62
1512374869.89,50020,4.06,72660.8,-11.71,-13.11,-13.11,0,*61
1512374871.17,50021,4.13,72658.3,-11.71,-13.01,-13.11,0,*61
1512374872.39,50022,4.13,72660.0,-11.69,-12.97,-12.97,0,*6A
1512374873.66,50023,4.13,72666.0,-11.71,-13.01,-12.97,0,*6C
1512374874.9,50024,4.13,72666.8,-11.71,-13.11,-13.11,0,*65
1512374876.18,50025,4.13,72660.8,-11.71,-12.89,-12.83,0,*6E
1512374877.45,50026,4.13,72658.8,-11.71,-12.83,-12.97,0,*62
1512374878.71,50027,4.13,72664.3,-11.73,-13.01,-12.93,0,*6E
1512374879.99,50028,4.13,72668.3,-11.71,-12.75,-12.89,0,*6A
1512374881.26,50029,4.13,72670.3,-11.75,-12.65,-12.75,0,*6D
1512374882.54,50030,4.13,72678.0,-11.73,-12.57,-12.61,0,*67
1512374883.83,50031,4.13,72680.8,-11.73,-12.61,-12.57,0,*66
1512374885.12,50032,4.13,72666.5,-11.73,-12.57,-12.57,0,*60
1512374886.38,50033,4.06,72666.8,-11.73,-12.35,-12.47,0,*64
1512374887.65,50034,4.13,72670.8,-11.73,-12.29,-12.35,0,*6B
1512374888.9,50035,4.13,72678.0,-11.73,-12.21,-12.29,0,*6F
1512374890.15,50036,4.13,72676.0,-11.73,-12.21,-12.29,0,*6C
1512374891.45,50037,4.13,72688.3,-11.71,-12.11,-12.11,0,*67
1512374892.69,50038,4.13,72688.0,-11.71,-12.43,-12.43,0,*68
1512374893.99,50039,4.13,72686.8,-11.71,-12.57,-12.57,0,*69
1512374895.28,50040,4.13,72682.0,-11.73,-12.75,-12.75,0,*65
1512374896.58,50041,4.06,72682.5,-11.71,-12.75,-12.83,0,*6F
1512374897.88,50042,4.06,72678.0,-11.71,-12.75,-12.83,0,*6C
1512374899.15,50043,4.13,72674.8,-11.73,-12.89,-12.79,0,*69
1512374900.44,50044,4.13,72670.5,-11.71,-12.61,-12.75,0,*66
1512374901.73,50045,4.13,72666.5,-11.73,-12.65,-12.79,0,*6D